TIANMU-1 08

Last updated on Sun Dec 07 2025 00:02:23 GMT+0000 (Coordinated Universal Time)

1 57400U 23101B 25340.60283564 .00011817 00000+0 43568-3 0 9997 2 57400 97.2869 30.3878 0007555 100.9217 259.2873 15.27924556132211
UTC large
Height (km)
Speed (km/s)
/
Latitude / Longitude
Inclination (degrees)
Orbital Period (minutes)
Azimuth
Elevation
Range (km)
Doppler Factor

Next 0 passes for location: London (51.5072 / 0.1276)

Sorry there are no passes over London.